Location: Madrid
(40.4000°N, 3.6830°W)
Time: 00:21:04
(UTC+01:00)

ISS - Pass Details

Date: 19 February 2020
Orbit: 415 x 422 km, 51.6° (Epoch: 27 February)

Event Time Altitude Azimuth Distance (km) Brightness Sun altitude
Rises 07:23:52 0° 198° (SSW) 2,349 -0.1 -8.3°
Reaches altitude 10° 07:26:19 10° 180° (S) 1,492 -0.9 -7.8°
Maximum altitude 07:28:49 20° 132° (SE) 1,045 -0.9 -7.4°
Drops below altitude 10° 07:31:20 10° 84° (E) 1,503 0.6 -6.9°
Sets 07:33:48 0° 66° (ENE) 2,373 1.1 -6.4°
